User: anonymous   Login
Location: Chenango Forks
(42.2242°N, 75.8278°W)
Time: 02:38:07
(UTC-05:00)
Language:

Coronas F rocket - Orbit

View from above orbital plane
View from above orbital plane
View from above satellite
View from above satellite

Ground track
Ground track

The orbit data is extracted from the following two-line orbital elements,

1 26874U 01032B   16038.93280485 +.00026893 +00000-0 +18513-3 0  9999
2 26874 082.4599 063.8671 0007194 353.8619 006.2555 15.74429782815100
Epoch (UTC): 07 February 2016 22:23:14
Eccentricity: 0.0007194
inclination: 82.4599°
perigee height: 341 km
apogee height: 351 km
right ascension of ascending node: 63.8671°
argument of perigee: 353.8619°
revolutions per day: 15.74429782
mean anomaly at epoch: 6.2555°
orbit number at epoch: 81510

The dashed part of the orbit path shows where the satellite is in the earth's shadow,  

DLR